This demonstration page uses our WeatherBlox Daily Observations layout. Learn more.

Left ArrowRight Arrow

30.21309, -93.2044

Hourly Observations for April 23, 2022

Temp ( °F °C ) Dew Point ( °F °C ) Humidity (%) Winds ( mph kmh ) Pressure ( in mb ) Visibility ( mi km ) Precip ( " mm )
12:15 am 00:15 Clear 71 21.6 66 18.8 84 84 SE 13 20 30.13 1020 10 16 0.00 0.00
12:35 am 00:35 Clear 71 21.4 66 18.7 85 85 SSE 13 20 30.12 1020 10 16 0.00 0.00
12:55 am 00:55 Clear 70 21.3 66 18.7 85 85 SE 13 20 30.11 1020 10 16 0.00 0.00
1:15 am 01:15 Clear 70 21.3 65 18.6 85 85 SE 14 22 30.11 1020 10 16 0.00 0.00
1:35 am 01:35 Clear 70 21.1 65 18.5 85 85 SE 13 20 30.11 1020 10 16 0.00 0.00
1:55 am 01:55 Clear 70 21 65 18.5 86 86 SE 13 20 30.10 1019 10 16 0.00 0.00
2:15 am 02:15 Clear 69 20.7 65 18.4 87 87 SE 10 17 30.09 1019 10 16 0.00 0.00
2:35 am 02:35 Clear 69 20.5 65 18.4 88 88 SE 9 15 30.08 1019 10 16 0.00 0.00
2:55 am 02:55 Clear 68 19.9 64 18 89 89 SE 8 13 30.08 1019 10 16 0.00 0.00
3:15 am 03:15 Partly Cloudy 67 19.5 64 17.8 90 90 SE 7 11 30.08 1019 10 16 0.00 0.00
3:35 am 03:35 Partly Cloudy 67 19.3 64 17.7 91 91 ESE 6 9 30.07 1018 10 16 0.00 0.00
3:55 am 03:55 Partly Cloudy 65 18.6 64 17.5 93 93 E 5 7 30.06 1018 10 16 0.00 0.00
4:15 am 04:15 Clear 65 18.1 63 17 93 93 ESE 6 9 30.06 1018 10 16 0.00 0.00
4:35 am 04:35 Mostly Cloudy 65 18.3 63 17.3 94 94 ESE 7 11 30.06 1018 10 16 0.00 0.00
4:55 am 04:55 Cloudy 64 17.9 62 16.8 93 93 E 6 9 30.06 1018 10 16 0.00 0.00
5:15 am 05:15 Cloudy 64 17.7 62 16.8 95 95 E 6 9 30.05 1018 7 11 0.00 0.00
5:35 am 05:35 Cloudy 64 17.8 62 16.9 95 95 ESE 5 7 30.06 1018 7 11 0.00 0.00
6:00 am 06:00 Partly Cloudy 64 18 63 17 94 94 ESE 5 7 30.06 1018 10 16 0.00 0.00
6:47 am 06:47 Mostly Cloudy 64 18 63 17 94 94 Calm 30.08 1019 10 16 0.00 0.00
7:46 am 07:46 Mostly Cloudy 66 19 64 18 94 94 E 7 11 30.09 1019 10 16 0.00 0.00
8:46 am 08:46 Partly Cloudy 72 22 66 19 83 83 ESE 10 17 30.08 1019 10 16 0.00 0.00
9:50 am 09:50 Partly Cloudy 77 25 63 17 61 61 S 18 30 30.09 1019 10 16 0.00 0.00
10:45 am 10:45 Mostly Cloudy 79 26 66 19 65 65 S 21 33 30.09 1019 10 16 0.00 0.00
11:51 am 11:51 Mostly Cloudy 81 27 63 17 54 54 SSE 23 37 30.08 1019 10 16 0.00 0.00
12:51 pm 12:51 Mostly Cloudy 82 28 64 18 55 55 S 25 41 30.07 1018 10 16 0.00 0.00
1:45 pm 13:45 Mostly Cloudy 81 27 64 18 58 58 S 20 31 30.05 1018 10 16 0.00 0.00
2:55 pm 14:55 Mostly Cloudy 82 28 66 19 58 58 SSE 21 33 30.02 1017 10 16 0.00 0.00
3:55 pm 15:55 Mostly Cloudy 81 27 66 19 62 62 SSE 21 33 30.00 1016 10 16 0.00 0.00
4:55 pm 16:55 Mostly Cloudy 81 27 66 19 62 62 SSE 21 33 30.00 1016 10 16 0.00 0.00
5:50 pm 17:50 Mostly Cloudy 81 27 66 19 62 62 SSE 17 28 29.97 1015 10 16 0.00 0.00
6:55 pm 18:55 Mostly Cloudy 77 25 70 21 79 79 SSE 17 28 29.96 1015 10 16 0.00 0.00
7:55 pm 19:55 Mostly Cloudy 77 25 70 21 79 79 SSE 17 28 29.96 1015 10 16 0.00 0.00
8:45 pm 20:45 Mostly Cloudy 73 23 70 21 89 89 SE 16 26 29.96 1015 10 16 0.00 0.00
9:45 pm 21:45 Cloudy 73 23 70 21 89 89 SSE 17 28 29.97 1015 10 16 0.00 0.00
10:15 pm 22:15 Cloudy 74 23.1 69 20.8 87 87 SSE 14 22 29.97 1015 10 16 0.00 0.00
10:35 pm 22:35 Cloudy 73 23 69 20.7 87 87 SSE 15 24 29.97 1015 10 16 0.00 0.00
10:55 pm 22:55 Cloudy 73 22.7 69 20.6 88 88 SE 14 22 29.98 1015 10 16 0.00 0.00
11:15 pm 23:15 Cloudy 73 22.8 69 20.6 87 87 SSE 12 19 29.98 1015 10 16 0.00 0.00
11:35 pm 23:35 Cloudy 73 22.5 69 20.5 89 89 SSE 12 19 29.98 1015 10 16 0.00 0.00
11:55 pm 23:55 Cloudy 73 23 69 20.7 87 87 SSE 16 26 29.98 1015 10 16 0.00 0.00

Powered by AerisWeather